Epoch,demod_status_bits,ebno,lock_status,signal_level,viterbi_ber
1664872303,C;S;V;F,13.9,0x00c000,-38.0,0.00e-0
1664872304,C;S;V;F,13.4,0x00c000,-38.0,0.00e-0
1664872305,C;S;V;F,13.5,0x00c000,-37.6,0.00e-0
1664872306,C;S;V;F,13.7,0x00c000,-37.7,0.00e-0
1664872307,C;S;V;F,13.9,0x00c000,-37.6,0.00e-0
1664872308,C;S;V;F,14.0,0x00c000,-37.6,
1664872309,,14.1,0x00c000,-37.6,0.00e-0
1664872310,C;S;V;F,13.7,0x00c000,-37.8,0.00e-0
1664872311,C;S;V;F,14.0,0x00c000,-37.6,0.00e-0
1664872312,C;S;V;F,,0x00c000,-37.6,0.00e-0
1664872313,C;S;V;F,13.9,0x00c000,-37.6,0.00e-0
1664872314,C;S;V;F,13.9,0x00c000,-37.6,0.00e-0
1664872315,C;S;V;F,14.1,0x00c000,-37.6,0.00e-0
1664872316,C;S;V;F,14.0,0x00c000,,0.00e-0
1664872317,C;S;V;F,14.1,0x00c000,-37.4,0.00e-0
1664872318,C;S;V;F,14.0,0x00c000,-37.5,0.00e-0
1664872319,C;S;V;F,14.1,0x00c000,-37.6,0.00e-0
1664872320,C;S;V;F,13.8,0x00c000,-37.7,0.00e-0
1664872321,C;S;V;F,14.1,0x00c000,-37.3,0.00e-0
1664872322,C;S;V;F,14.4,0x00c000,-37.4,0.00e-0
1664872323,C;S;V;F,14.2,0x00c000,-37.7,0.00e-0
1664872324,C;S;V;F,14.2,0x00c000,-37.2,0.00e-0
1664872325,C;S;V;F,14.4,0x00c000,-37.4,
1664872326,C;S;V;F,14.2,0x00c000,-37.5,0.00e-0
1664872327,,14.3,0x00c000,-37.3,0.00e-0
1664872328,C;S;V;F,14.3,0x00c000,-37.4,0.00e-0
1664872329,C;S;V;F,,0x00c000,-37.2,0.00e-0
1664872330,C;S;V;F,14.4,0x00c000,-37.2,0.00e-0
1664872331,C;S;V;F,14.3,0x00c000,,0.00e-0
1664872333,C;S;V;F,14.6,0x00c000,-37.1,
1664872334,,14.4,0x00c000,-37.2,0.00e-0
1664872335,C;S;V;F,14.8,0x00c000,-36.8,0.00e-0
1664872336,C;S;V;F,14.6,0x00c000,-37.1,0.00e-0
1664872337,C;S;V;F,,0x00c000,-37.0,0.00e-0
1664872338,C;S;V;F,14.5,0x00c000,,0.00e-0
1664872339,C;S;V;F,14.5,0x00c000,-36.9,0.00e-0
1664872340,C;S;V;F,14.8,0x00c000,-36.8,0.00e-0
1664872341,C;S;V;F,14.9,0x00c000,-36.8,0.00e-0
1664872342,C;S;V;F,14.8,0x00c000,-37.0,0.00e-0
1664872343,C;S;V;F,14.7,0x00c000,-36.9,0.00e-0
1664872344,C;S;V;F,14.7,0x00c000,-36.8,0.00e-0
1664872345,C;S;V;F,15.0,0x00c000,-36.8,0.00e-0
1664872346,C;S;V;F,15.1,0x00c000,-36.6,0.00e-0
1664872347,C;S;V;F,15.0,0x00c000,-36.8,0.00e-0
1664872348,C;S;V;F,14.8,0x00c000,-36.7,0.00e-0
1664872349,,15.0,0x00c000,-36.8,
1664872350,C;S;V;F,15.0,0x00c000,-36.7,0.00e-0
1664872351,C;S;V;F,15.0,0x00c000,-36.8,0.00e-0
1664872352,C;S;V;F,,0x00c000,-36.8,0.00e-0
1664872353,C;S;V;F,15.1,0x00c000,-36.4,0.00e-0
1664872354,C;S;V;F,15.2,0x00c000,-36.6,0.00e-0
1664872355,C;S;V;F,15.4,0x00c000,,0.00e-0
1664872356,C;S;V;F,15.2,0x00c000,-36.5,0.00e-0
1664872357,C;S;V;F,15.4,0x00c000,-36.5,0.00e-0
1664872358,C;S;V;F,15.0,0x00c000,-36.7,0.00e-0
1664872359,C;S;V;F,15.3,0x00c000,-36.5,0.00e-0
1664872360,C;S;V;F,15.3,0x00c000,-36.4,0.00e-0
1664872361,C;S;V;F,15.4,0x00c000,-36.3,0.00e-0
1664872362,C;S;V;F,15.5,0x00c000,-36.3,0.00e-0
1664872363,C;S;V;F,15.3,0x00c000,-36.3,0.00e-0
1664872364,C;S;V;F,15.7,0x00c000,-36.2,0.00e-0
1664872365,C;S;V;F,15.4,0x00c000,-36.2,0.00e-0
1664872366,C;S;V;F,15.5,0x00c000,-36.4,0.00e-0
1664872367,C;S;V;F,15.7,0x00c000,-36.1,0.00e-0
1664872368,C;S;V;F,15.8,0x00c000,-36.3,0.00e-0
1664872369,C;S;V;F,15.6,0x00c000,-36.0,
1664872370,,15.7,0x00c000,-36.2,0.00e-0
1664872371,C;S;V;F,15.9,0x00c000,-36.0,0.00e-0
1664872372,C;S;V;F,15.9,0x00c000,-36.0,0.00e-0
1664872373,C;S;V;F,,0x00c000,-35.8,0.00e-0
1664872374,C;S;V;F,16.1,0x00c000,-35.8,0.00e-0
1664872375,C;S;V;F,16.0,0x00c000,,0.00e-0
1664872376,C;S;V;F,16.0,0x00c000,-36.0,0.00e-0
1664872377,C;S;V;F,15.8,0x00c000,-35.9,0.00e-0
1664872378,C;S;V;F,16.1,0x00c000,-35.6,0.00e-0
1664872379,C;S;V;F,16.1,0x00c000,-35.6,0.00e-0
1664872380,C;S;V;F,16.1,0x00c000,-35.6,0.00e-0
1664872381,C;S;V;F,16.2,0x00c000,-35.8,0.00e-0
1664872382,C;S;V;F,16.3,0x00c000,-35.6,0.00e-0
1664872383,C;S;V;F,16.4,0x00c000,-35.5,0.00e-0
1664872384,C;S;V;F,16.3,0x00c000,-35.6,0.00e-0
1664872385,C;S;V;F,16.3,0x00c000,-35.7,0.00e-0
1664872386,C;S;V;F,16.3,0x00c000,-35.6,0.00e-0
1664872387,,16.4,0x00c000,-35.6,
1664872388,C;S;V;F,16.2,0x00c000,-35.6,0.00e-0
1664872389,C;S;V;F,16.3,0x00c000,-35.6,0.00e-0
1664872390,C;S;V;F,16.1,0x00c000,-35.6,0.00e-0
1664872391,C;S;V;F,,0x00c000,-35.6,0.00e-0
1664872392,C;S;V;F,16.3,0x00c000,-35.6,0.00e-0
1664872393,C;S;V;F,16.4,0x00c000,,0.00e-0
1664872394,C;S;V;F,16.3,0x00c000,-35.6,0.00e-0
1664872396,C;S;V;F,16.2,0x00c000,-35.7,0.00e-0
1664872397,C;S;V;F,16.2,0x00c000,-35.6,0.00e-0
1664872401,C;S;V;F,16.1,0x00c000,-35.6,0.00e-0
1664872402,C;S;V;F,16.1,0x00c000,-35.5,0.00e-0
1664872403,C;S;V;F,16.3,0x00c000,-35.6,0.00e-0
1664872404,C;S;V;F,16.3,0x00c000,-35.6,0.00e-0
1664872405,C;S;V;F,16.4,0x00c000,-35.5,0.00e-0
1664872406,C;S;V;F,16.2,0x00c000,-35.6,0.00e-0
1664872407,C;S;V;F,16.1,0x00c000,-35.5,0.00e-0
1664872408,C;S;V;F,16.5,0x00c000,-35.2,
1664872409,,16.4,0x00c000,-35.5,0.00e-0
1664872410,C;S;V;F,16.5,0x00c000,-35.6,0.00e-0
1664872411,C;S;V;F,16.4,0x00c000,-35.6,0.00e-0
1664872412,C;S;V;F,,0x00c000,-35.5,0.00e-0
1664872413,C;S;V;F,16.7,0x00c000,,0.00e-0
1664872414,C;S;V;F,16.4,0x00c000,-35.5,0.00e-0
1664872415,C;S;V;F,16.6,0x00c000,-35.5,0.00e-0
1664872416,C;S;V;F,16.6,0x00c000,-35.4,0.00e-0
1664872417,C;S;V;F,16.6,0x00c000,-35.6,0.00e-0
1664872418,C;S;V;F,16.6,0x00c000,-35.6,0.00e-0
1664872419,C;S;V;F,16.5,0x00c000,-35.6,0.00e-0
1664872420,C;S;V;F,16.6,0x00c000,-35.5,0.00e-0
1664872421,C;S;V;F,16.4,0x00c000,-35.5,0.00e-0
1664872422,C;S;V;F,16.4,0x00c000,-35.6,0.00e-0
1664872423,C;S;V;F,16.5,0x00c000,-35.5,0.00e-0
1664872424,C;S;V;F,16.5,0x00c000,-35.5,0.00e-0
1664872425,C;S;V;F,16.6,0x00c000,-35.5,
1664872426,,16.6,0x00c000,-35.3,0.00e-0
1664872427,C;S;V;F,16.5,0x00c000,-35.5,0.00e-0
1664872428,C;S;V;F,16.6,0x00c000,-35.5,0.00e-0
1664872429,C;S;V;F,,0x00c000,-35.4,0.00e-0
1664872430,C;S;V;F,16.7,0x00c000,-35.5,0.00e-0
1664872431,C;S;V;F,16.6,0x00c000,,0.00e-0
1664872432,C;S;V;F,16.6,0x00c000,-35.5,0.00e-0
1664872433,C;S;V;F,16.6,0x00c000,-35.4,0.00e-0
1664872434,C;S;V;F,16.6,0x00c000,-35.5,0.00e-0
1664872435,C;S;V;F,16.5,0x00c000,-35.5,0.00e-0
1664872436,C;S;V;F,16.6,0x00c000,-35.5,0.00e-0
1664872437,C;S;V;F,16.5,0x00c000,-35.5,0.00e-0
1664872438,C;S;V;F,16.3,0x00c000,-35.6,0.00e-0
1664872439,C;S;V;F,16.4,0x00c000,-35.6,0.00e-0
1664872440,C;S;V;F,16.2,0x00c000,-35.6,0.00e-0
1664872441,C;S;V;F,16.3,0x00c000,-35.6,0.00e-0
1664872442,C;S;V;F,16.3,0x00c000,-35.6,0.00e-0
1664872443,,16.4,0x00c000,-35.6,
1664872444,C;S;V;F,16.2,0x00c000,-35.9,0.00e-0
1664872445,C;S;V;F,16.2,0x00c000,-35.9,0.00e-0
1664872446,C;S;V;F,16.4,0x00c000,-35.8,0.00e-0
1664872447,C;S;V;F,,0x00c000,-35.8,0.00e-0
1664872448,C;S;V;F,16.2,0x00c000,-35.8,0.00e-0
1664872449,C;S;V;F,16.4,0x00c000,,0.00e-0
1664872450,C;S;V;F,16.1,0x00c000,-35.8,0.00e-0
1664872451,C;S;V;F,16.3,0x00c000,-36.0,0.00e-0
1664872452,C;S;V;F,16.2,0x00c000,-35.9,0.00e-0
1664872453,C;S;V;F,16.4,0x00c000,-35.8,0.00e-0
1664872454,C;S;V;F,16.4,0x00c000,-35.7,0.00e-0
1664872455,C;S;V;F,16.2,0x00c000,-35.9,0.00e-0
1664872456,C;S;V;F,16.3,0x00c000,-35.9,0.00e-0
1664872459,C;S;V;F,16.3,0x00c000,-35.8,0.00e-0
1664872460,C;S;V;F,16.5,0x00c000,-35.9,0.00e-0
1664872461,C;S;V;F,16.4,0x00c000,-35.7,0.00e-0
1664872462,C;S;V;F,16.5,0x00c000,-35.7,0.00e-0
1664872463,C;S;V;F,16.4,0x00c000,-35.8,0.00e-0
1664872464,C;S;V;F,16.4,0x00c000,-35.7,0.00e-0
1664872465,C;S;V;F,16.5,0x00c000,-35.8,0.00e-0
1664872466,C;S;V;F,16.3,0x00c000,-35.9,0.00e-0
1664872467,C;S;V;F,16.3,0x00c000,-35.6,
1664872468,C;S;V;F,16.5,0x00c000,-35.7,0.00e-0
1664872469,,16.3,0x00c000,-35.6,0.00e-0
1664872470,C;S;V;F,16.6,0x00c000,-35.6,0.00e-0
1664872471,C;S;V;F,16.6,0x00c000,-35.5,0.00e-0
1664872472,C;S;V;F,,0x00c000,-35.6,0.00e-0
1664872473,C;S;V;F,16.5,0x00c000,-35.7,0.00e-0
1664872474,C;S;V;F,16.4,0x00c000,-35.6,0.00e-0
1664872475,C;S;V;F,16.6,0x00c000,-35.8,0.00e-0
1664872476,C;S;V;F,16.7,0x00c000,,0.00e-0
1664872477,C;S;V;F,16.3,0x00c000,-35.8,0.00e-0
1664872478,C;S;V;F,16.3,0x00c000,-35.8,0.00e-0
1664872479,C;S;V;F,16.5,0x00c000,-35.9,0.00e-0
1664872480,C;S;V;F,16.5,0x00c000,-35.9,0.00e-0
1664872481,C;S;V;F,16.5,0x00c000,-35.8,0.00e-0
1664872482,C;S;V;F,16.3,0x00c000,-35.8,0.00e-0
1664872483,C;S;V;F,16.3,0x00c000,-35.8,0.00e-0
1664872484,C;S;V;F,16.4,0x00c000,-35.8,0.00e-0
1664872485,C;S;V;F,16.3,0x00c000,-35.8,0.00e-0
1664872486,C;S;V;F,16.5,0x00c000,-35.8,
1664872487,,16.4,0x00c000,-35.9,0.00e-0
1664872488,C;S;V;F,16.4,0x00c000,-35.8,0.00e-0
1664872489,C;S;V;F,16.6,0x00c000,-35.9,0.00e-0
1664872490,C;S;V;F,16.6,0x00c000,-35.9,0.00e-0
1664872491,C;S;V;F,,0x00c000,-35.8,0.00e-0
1664872492,C;S;V;F,16.3,0x00c000,-35.8,0.00e-0
1664872493,C;S;V;F,16.6,0x00c000,,0.00e-0
1664872494,C;S;V;F,16.6,0x00c000,-35.6,0.00e-0
1664872495,C;S;V;F,16.6,0x00c000,-35.6,0.00e-0
1664872496,C;S;V;F,16.6,0x00c000,-35.6,0.00e-0
1664872497,C;S;V;F,16.6,0x00c000,-35.6,0.00e-0
1664872498,C;S;V;F,16.7,0x00c000,-35.6,0.00e-0
1664872499,C;S;V;F,16.6,0x00c000,-35.6,0.00e-0
1664872500,C;S;V;F,16.7,0x00c000,-35.7,0.00e-0
1664872501,C;S;V;F,16.7,0x00c000,-35.6,0.00e-0
1664872502,C;S;V;F,16.7,0x00c000,-35.7,0.00e-0
1664872503,C;S;V;F,16.7,0x00c000,-35.7,0.00e-0
1664872504,C;S;V;F,16.7,0x00c000,-35.7,0.00e-0
1664872505,C;S;V;F,16.7,0x00c000,-35.8,
1664872506,,16.5,0x00c000,-35.7,0.00e-0
1664872507,C;S;V;F,16.5,0x00c000,-35.7,0.00e-0
1664872508,C;S;V;F,16.4,0x00c000,-35.8,0.00e-0
1664872509,C;S;V;F,16.3,0x00c000,-35.8,0.00e-0
1664872510,C;S;V;F,,0x00c000,-36.0,0.00e-0
1664872511,C;S;V;F,16.4,0x00c000,,0.00e-0
1664872512,C;S;V;F,16.1,0x00c000,-36.0,0.00e-0
1664872513,C;S;V;F,16.4,0x00c000,-36.0,0.00e-0
1664872514,,16.1,0x00c000,-36.3,
1664872515,C;S;V;F,,0x00c000,-36.0,0.00e-0
1664872516,C;S;V;F,16.2,0x00c000,-36.0,0.00e-0
1664872517,C;S;V;F,16.4,0x00c000,,0.00e-0
1664872518,C;S;V;F,16.4,0x00c000,-35.7,0.00e-0
1664872519,C;S;V;F,16.2,0x00c000,-35.9,0.00e-0
1664872521,,16.4,0x00c000,-35.9,
1664872522,C;S;V;F,16.3,0x00c000,-36.1,0.00e-0
1664872523,C;S;V;F,,0x00c000,-36.0,0.00e-0
1664872524,C;S;V;F,16.1,0x00c000,,0.00e-0
1664872525,C;S;V;F,16.0,0x00c000,-36.4,0.00e-0
1664872526,C;S;V;F,16.0,0x00c000,-36.5,0.00e-0
1664872527,C;S;V;F,15.8,0x00c000,-36.5,0.00e-0
1664872528,C;S;V;F,15.7,0x00c000,-36.7,0.00e-0
1664872529,C;S;V;F,15.9,0x00c000,-36.7,0.00e-0
1664872530,C;S;V;F,15.9,0x00c000,-36.5,0.00e-0
1664872531,C;S;V;F,15.9,0x00c000,-36.6,0.00e-0
1664872532,C;S;V;F,15.6,0x00c000,-36.8,0.00e-0
1664872533,C;S;V;F,15.6,0x00c000,-36.9,0.00e-0
1664872534,,15.5,0x00c000,-37.4,
1664872535,C;S;V;F,14.8,0x00c000,-37.7,0.00e-0
1664872536,C;S;V;F,14.4,0x00c000,-37.8,0.00e-0
1664872537,C;S;V;F,14.4,0x00c000,-38.0,0.00e-0
1664872538,C;S;V;F,14.3,0x00c000,-38.1,0.00e-0
1664872539,C;S;V;F,,0x00c000,-38.3,0.00e-0
1664872540,C;S;V;F,14.2,0x00c000,-38.5,0.00e-0
1664872541,C;S;V;F,14.2,0x00c000,,0.00e-0
1664872542,C;S;V;F,13.7,0x00c000,-38.8,0.00e-0
1664872543,C;S;V;F,13.4,0x00c000,-39.2,0.00e-0
1664872544,C;S;V;F,13.3,0x00c000,-39.2,1.51e-7
1664872545,C;S;V;F,13.5,0x00c000,-39.3,1.51e-7
1664872546,C;S;V;F,13.4,0x00c000,-39.1,0.00e-0
1664872547,C;S;V;F,13.4,0x00c000,-39.2,0.00e-0
1664872548,C;S;V;F,13.3,0x00c000,-39.2,0.00e-0
1664872549,C;S;V;F,13.7,0x00c000,-39.0,
1664872550,,13.7,0x00c000,-38.8,0.00e-0
1664872551,C;S;V;F,13.9,0x00c000,-38.7,0.00e-0
1664872552,C;S;V;F,14.0,0x00c000,-38.6,0.00e-0
1664872553,C;S;V;F,13.9,0x00c000,-38.7,0.00e-0
1664872554,C;S;V;F,,0x00c000,-38.7,0.00e-0
1664872555,C;S;V;F,13.8,0x00c000,,0.00e-0
1664872556,C;S;V;F,14.0,0x00c000,-38.6,0.00e-0
1664872557,C;S;V;F,14.0,0x00c000,-38.5,0.00e-0
1664872558,C;S;V;F,14.1,0x00c000,-38.4,0.00e-0
1664872559,C;S;V;F,14.2,0x00c000,-38.4,0.00e-0
1664872560,C;S;V;F,14.1,0x00c000,-38.7,0.00e-0
1664872561,C;S;V;F,13.7,0x00c000,-38.8,0.00e-0
1664872562,C;S;V;F,13.3,0x00c000,-39.1,0.00e-0
1664872563,C;S;V;F,13.2,0x00c000,-39.5,0.00e-0
1664872564,C;S;V;F,13.1,0x00c000,-39.4,1.51e-7
1664872565,,13.0,0x00c000,-39.6,
1664872566,C;S;V;F,13.0,0x00c000,-39.7,0.00e-0
1664872567,C;S;V;F,13.0,0x00c000,-39.4,3.03e-7
1664872568,C;S;V;F,,0x00c000,-39.5,1.51e-7
1664872569,C;S;V;F,13.2,0x00c000,-39.0,1.51e-7
1664872570,C;S;V;F,13.3,0x00c000,,1.51e-7
1664872571,C;S;V;F,13.6,0x00c000,-38.7,0.00e-0
1664872572,C;S;V;F,14.1,0x00c000,-38.4,0.00e-0
1664872573,C;S;V;F,14.2,0x00c000,-38.0,0.00e-0
1664872574,C;S;V;F,14.9,0x00c000,-37.9,0.00e-0
1664872575,C;S;V;F,14.9,0x00c000,-37.5,0.00e-0
1664872576,C;S;V;F,15.0,0x00c000,-37.6,0.00e-0
1664872577,C;S;V;F,14.7,0x00c000,-37.6,0.00e-0
1664872578,C;S;V;F,14.9,0x00c000,-37.6,0.00e-0
1664872579,C;S;V;F,14.9,0x00c000,-37.6,0.00e-0
1664872580,C;S;V;F,14.9,0x00c000,-37.9,
1664872581,,14.6,0x00c000,-38.0,0.00e-0
1664872582,C;S;V;F,,,,0.00e-0
1664872584,C;S;V;F,14.4,0x00c000,-38.3,
1664872585,C;S;V;F,14.4,0x00c000,-38.0,0.00e-0
1664872586,,14.9,0x00c000,-37.9,0.00e-0
1664872587,C;S;V;F,14.8,0x00c000,-37.9,0.00e-0
1664872588,C;S;V;F,14.3,0x00c000,-38.4,0.00e-0
1664872589,C;S;V;F,,0x00c000,-38.7,0.00e-0
1664872590,C;S;V;F,14.1,0x00c000,,0.00e-0
1664872591,C;S;V;F,13.7,0x00c000,-39.0,0.00e-0
1664872592,C;S;V;F,13.9,0x00c000,-38.8,0.00e-0
1664872593,C;S;V;F,13.7,0x00c000,-38.8,0.00e-0
1664872594,C;S;V;F,13.9,0x00c000,-38.7,0.00e-0
1664872595,C;S;V;F,13.9,0x00c000,-38.8,0.00e-0
1664872596,C;S;V;F,13.8,0x00c000,-39.0,0.00e-0
1664872597,C;S;V;F,13.1,0x00c000,-39.5,0.00e-0
1664872598,C;S;V;F,12.6,0x00c000,-39.8,1.51e-7
1664872599,C;S;V;F,12.2,0x00c000,-40.3,4.54e-7
1664872600,C;S;V;F,12.6,0x00c000,-40.2,
1664872601,,12.8,0x00c000,-39.9,2.11e-6
1664872602,C;S;V;F,13.0,0x00c000,-39.6,1.66e-6
1664872603,C;S;V;F,13.3,0x00c000,-39.5,4.54e-7
1664872604,C;S;V;F,,0x00c000,-39.2,3.03e-7
1664872605,C;S;V;F,13.2,0x00c000,-39.1,1.51e-7
1664872606,C;S;V;F,13.3,0x00c000,,0.00e-0
1664872607,C;S;V;F,13.6,0x00c000,-38.7,0.00e-0
1664872608,C;S;V;F,14.0,0x00c000,-38.7,0.00e-0
1664872609,C;S;V;F,14.0,0x00c000,-38.2,0.00e-0
1664872610,C;S;V;F,14.3,0x00c000,-38.3,0.00e-0
1664872611,C;S;V;F,14.2,0x00c000,-38.7,0.00e-0
1664872612,C;S;V;F,14.1,0x00c000,-38.6,0.00e-0
1664872613,C;S;V;F,13.9,0x00c000,-38.8,0.00e-0
1664872614,C;S;V;F,13.7,0x00c000,-38.8,0.00e-0
1664872615,C;S;V;F,13.8,0x00c000,-38.7,0.00e-0
1664872616,,14.1,0x00c000,-38.1,
1664872617,C;S;V;F,15.2,0x00c000,-37.7,0.00e-0
1664872618,C;S;V;F,15.5,0x00c000,-37.2,0.00e-0
1664872619,C;S;V;F,,0x00c000,-36.8,0.00e-0
1664872620,C;S;V;F,15.8,0x00c000,-36.5,0.00e-0
1664872621,C;S;V;F,15.9,0x00c000,,0.00e-0
1664872622,C;S;V;F,16.0,0x00c000,-36.4,0.00e-0
1664872623,C;S;V;F,16.2,0x00c000,-36.0,0.00e-0
1664872624,C;S;V;F,16.4,0x00c000,-35.9,0.00e-0
1664872625,C;S;V;F,16.7,0x00c000,-35.8,0.00e-0
1664872626,C;S;V;F,16.5,0x00c000,-35.9,0.00e-0
1664872627,C;S;V;F,16.6,0x00c000,-35.7,0.00e-0
1664872628,C;S;V;F,16.8,0x00c000,-35.4,0.00e-0
1664872629,C;S;V;F,16.9,0x00c000,-35.4,0.00e-0
1664872630,C;S;V;F,17.1,0x00c000,-35.0,0.00e-0
1664872631,C;S;V;F,17.2,0x00c000,-35.1,0.00e-0
1664872632,C;S;V;F,17.1,0x00c000,-34.9,
1664872633,,17.3,0x00c000,-34.9,0.00e-0
1664872634,C;S;V;F,17.3,0x00c000,-34.9,0.00e-0
1664872635,C;S;V;F,17.2,0x00c000,-34.9,0.00e-0
1664872636,C;S;V;F,,0x00c000,-35.0,0.00e-0
1664872637,C;S;V;F,17.2,0x00c000,,0.00e-0
1664872638,C;S;V;F,17.3,0x00c000,-34.8,0.00e-0
1664872639,C;S;V;F,17.5,0x00c000,-34.8,0.00e-0
1664872640,C;S;V;F,17.5,0x00c000,-34.6,0.00e-0
1664872641,C;S;V;F,17.5,0x00c000,-34.7,0.00e-0
1664872642,C;S;V;F,17.6,0x00c000,-34.1,0.00e-0
1664872643,C;S;V;F,17.9,0x00c000,-34.1,0.00e-0
1664872644,C;S;V;F,17.9,0x00c000,-34.1,0.00e-0
1664872647,C;S;V;F,17.9,0x00c000,-34.2,0.00e-0
1664872648,C;S;V;F,17.8,0x00c000,-34.0,0.00e-0
1664872649,C;S;V;F,17.8,0x00c000,-33.9,0.00e-0
1664872650,C;S;V;F,17.9,0x00c000,-34.1,
1664872651,,17.9,0x00c000,-34.2,0.00e-0
1664872652,C;S;V;F,17.9,0x00c000,-34.0,0.00e-0
1664872653,C;S;V;F,18.0,0x00c000,-33.9,0.00e-0
1664872654,C;S;V;F,,0x00c000,-33.8,0.00e-0
1664872655,C;S;V;F,18.1,0x00c000,,0.00e-0
1664872656,C;S;V;F,17.9,0x00c000,-34.0,0.00e-0
1664872657,C;S;V;F,17.9,0x00c000,-34.0,0.00e-0
1664872658,C;S;V;F,17.9,0x00c000,-34.0,0.00e-0
1664872659,C;S;V;F,17.8,0x00c000,-34.3,
1664872660,,17.7,0x00c000,-34.3,0.00e-0
1664872661,C;S;V;F,17.8,0x00c000,-34.4,0.00e-0
1664872662,C;S;V;F,17.5,0x00c000,-34.6,0.00e-0
1664872663,C;S;V;F,17.4,0x00c000,-34.7,0.00e-0
1664872664,C;S;V;F,17.2,0x00c000,-34.9,0.00e-0
1664872665,C;S;V;F,,0x00c000,-34.9,0.00e-0
1664872666,C;S;V;F,17.0,0x00c000,,0.00e-0
1664872667,C;S;V;F,17.0,0x00c000,-35.1,0.00e-0
1664872668,C;S;V;F,16.8,0x00c000,-35.1,0.00e-0
1664872669,C;S;V;F,16.9,0x00c000,-35.5,0.00e-0
1664872670,C;S;V;F,16.7,0x00c000,-36.1,0.00e-0
1664872671,C;S;V;F,16.1,0x00c000,-36.4,0.00e-0
1664872672,C;S;V;F,16.0,0x00c000,-36.7,0.00e-0
1664872673,C;S;V;F,16.0,0x00c000,-36.8,0.00e-0
1664872674,C;S;V;F,15.9,0x00c000,-36.4,0.00e-0
1664872675,C;S;V;F,16.1,0x00c000,-36.4,0.00e-0
1664872676,C;S;V;F,15.9,0x00c000,-36.3,0.00e-0
1664872677,,16.1,0x00c000,-36.4,
1664872678,C;S;V;F,16.0,0x00c000,-36.8,0.00e-0
1664872679,C;S;V;F,15.6,0x00c000,-37.0,0.00e-0
1664872680,C;S;V;F,15.6,0x00c000,-37.1,0.00e-0
1664872681,C;S;V;F,,0x00c000,-37.0,0.00e-0
1664872682,C;S;V;F,15.8,0x00c000,-36.8,0.00e-0
1664872683,C;S;V;F,15.6,0x00c000,,0.00e-0
1664872684,C;S;V;F,15.4,0x00c000,-37.3,0.00e-0
1664872685,C;S;V;F,15.2,0x00c000,-37.5,0.00e-0
1664872686,C;S;V;F,15.1,0x00c000,-37.4,0.00e-0
1664872687,C;S;V;F,14.9,0x00c000,-37.8,0.00e-0
1664872688,C;S;V;F,14.4,0x00c000,-38.3,0.00e-0
1664872689,C;S;V;F,14.2,0x00c000,-38.5,0.00e-0
1664872690,C;S;V;F,14.4,0x00c000,-38.5,0.00e-0
1664872691,C;S;V;F,14.4,0x00c000,-38.5,0.00e-0
1664872692,C;S;V;F,14.4,0x00c000,-38.3,
1664872693,,14.1,0x00c000,-38.3,0.00e-0
1664872694,C;S;V;F,14.3,0x00c000,-38.5,0.00e-0
1664872695,C;S;V;F,14.0,0x00c000,-39.1,0.00e-0
1664872696,C;S;V;F,13.5,0x00c000,-38.9,0.00e-0
1664872697,C;S;V;F,,0x00c000,-38.4,0.00e-0
1664872698,C;S;V;F,14.0,0x00c000,-38.0,0.00e-0
1664872699,C;S;V;F,14.7,0x00c000,,0.00e-0
1664872700,C;S;V;F,14.7,0x00c000,-38.0,0.00e-0
1664872704,C;S;V;F,14.9,0x00c000,-37.9,0.00e-0
1664872705,C;S;V;F,15.2,0x00c000,-37.1,0.00e-0
1664872706,C;S;V;F,15.7,0x00c000,-36.6,0.00e-0
1664872707,C;S;V;F,15.7,0x00c000,-36.4,0.00e-0
1664872710,C;S;V;F,16.5,0x00c000,-35.9,0.00e-0
1664872711,C;S;V;F,16.8,0x00c000,-35.6,0.00e-0
1664872712,C;S;V;F,16.7,0x00c000,-35.5,0.00e-0
1664872713,C;S;V;F,17.0,0x00c000,-35.1,0.00e-0
1664872714,C;S;V;F,17.2,0x00c000,-34.9,0.00e-0
1664872715,C;S;V;F,17.5,0x00c000,-34.5,0.00e-0
1664872716,C;S;V;F,17.6,0x00c000,-34.3,0.00e-0
1664872717,C;S;V;F,17.7,0x00c000,-34.3,0.00e-0
1664872718,C;S;V;F,17.8,0x00c000,-34.4,0.00e-0
1664872719,,17.7,0x00c000,-34.4,
1664872720,C;S;V;F,17.8,0x00c000,-34.1,0.00e-0
1664872721,C;S;V;F,17.8,0x00c000,-33.9,0.00e-0
1664872722,C;S;V;F,17.9,0x00c000,-34.0,0.00e-0
1664872723,C;S;V;F,17.9,0x00c000,-34.3,0.00e-0
1664872724,C;S;V;F,,0x00c000,-34.7,0.00e-0
1664872725,C;S;V;F,17.4,0x00c000,,0.00e-0
1664872726,C;S;V;F,17.3,0x00c000,-34.9,0.00e-0
1664872727,C;S;V;F,17.2,0x00c000,-35.1,0.00e-0
1664872728,C;S;V;F,17.2,0x00c000,-35.1,0.00e-0
1664872729,C;S;V;F,17.1,0x00c000,-35.2,0.00e-0
1664872730,C;S;V;F,17.0,0x00c000,-35.3,0.00e-0
1664872731,C;S;V;F,17.0,0x00c000,-35.5,0.00e-0
1664872732,C;S;V;F,16.6,0x00c000,-35.7,0.00e-0
1664872733,C;S;V;F,16.5,0x00c000,-36.0,0.00e-0
1664872734,C;S;V;F,16.6,0x00c000,-36.0,0.00e-0
1664872735,C;S;V;F,16.3,0x00c000,-36.1,0.00e-0
1664872736,C;S;V;F,16.3,0x00c000,-36.0,
1664872737,,16.3,0x00c000,-36.0,0.00e-0
1664872738,C;S;V;F,16.4,0x00c000,-35.9,0.00e-0
1664872739,C;S;V;F,16.3,0x00c000,-35.9,0.00e-0
1664872740,C;S;V;F,,0x00c000,-35.9,0.00e-0
1664872741,C;S;V;F,16.5,0x00c000,-36.1,0.00e-0
1664872742,C;S;V;F,16.4,0x00c000,,0.00e-0
1664872743,C;S;V;F,16.2,0x00c000,-36.3,0.00e-0
1664872744,C;S;V;F,16.0,0x00c000,-36.4,0.00e-0
1664872745,C;S;V;F,16.0,0x00c000,-36.8,0.00e-0
1664872746,C;S;V;F,15.8,0x00c000,-36.9,0.00e-0
1664872747,C;S;V;F,15.7,0x00c000,-36.8,0.00e-0
1664872748,C;S;V;F,15.8,0x00c000,-36.7,0.00e-0
1664872749,C;S;V;F,16.1,0x00c000,-36.4,0.00e-0
1664872750,C;S;V;F,16.2,0x00c000,-36.4,0.00e-0
1664872751,C;S;V;F,16.1,0x00c000,-36.5,
1664872752,,15.8,0x00c000,-36.8,0.00e-0
1664872753,C;S;V;F,15.6,0x00c000,-36.8,0.00e-0
1664872754,C;S;V;F,15.4,0x00c000,-37.1,0.00e-0
1664872755,C;S;V;F,15.2,0x00c000,-37.3,0.00e-0
1664872756,C;S;V;F,,0x00c000,-37.5,0.00e-0
1664872757,C;S;V;F,15.1,0x00c000,-37.4,0.00e-0
1664872758,C;S;V;F,15.1,0x00c000,,0.00e-0
1664872759,C;S;V;F,15.1,0x00c000,-37.4,0.00e-0
1664872760,C;S;V;F,15.1,0x00c000,-37.2,0.00e-0
1664872761,C;S;V;F,15.1,0x00c000,-37.5,0.00e-0
1664872762,C;S;V;F,15.0,0x00c000,-37.6,0.00e-0
1664872763,C;S;V;F,14.8,0x00c000,-37.9,0.00e-0
1664872764,C;S;V;F,14.4,0x00c000,-38.1,0.00e-0
1664872765,C;S;V;F,14.4,0x00c000,-38.0,0.00e-0
1664872766,C;S;V;F,14.7,0x00c000,-37.7,0.00e-0
1664872767,C;S;V;F,14.9,0x00c000,-37.6,0.00e-0
1664872768,C;S;V;F,15.0,0x00c000,-37.5,0.00e-0
1664872769,C;S;V;F,15.0,0x00c000,-37.4,
1664872770,,15.2,0x00c000,-37.4,0.00e-0
1664872771,C;S;V;F,,,,0.00e-0
1664872773,C;S;V;F,15.1,0x00c000,-37.5,0.00e-0
1664872774,C;S;V;F,15.3,0x00c000,-37.2,0.00e-0
1664872775,C;S;V;F,15.7,0x00c000,-36.8,0.00e-0
1664872776,C;S;V;F,15.7,0x00c000,-36.5,0.00e-0
1664872777,C;S;V;F,16.1,0x00c000,-36.4,0.00e-0
1664872778,C;S;V;F,16.1,0x00c000,-36.4,0.00e-0
1664872779,C;S;V;F,16.2,0x00c000,-36.3,0.00e-0
1664872780,C;S;V;F,16.0,0x00c000,-36.4,0.00e-0
1664872781,C;S;V;F,16.1,0x00c000,-36.4,
1664872782,,16.1,0x00c000,-36.4,0.00e-0
1664872783,C;S;V;F,16.1,0x00c000,-36.2,0.00e-0
1664872784,C;S;V;F,16.1,0x00c000,-35.9,0.00e-0
1664872785,C;S;V;F,,0x00c000,-35.6,0.00e-0
1664872786,C;S;V;F,16.5,0x00c000,-35.5,0.00e-0
1664872787,C;S;V;F,16.7,0x00c000,,0.00e-0
1664872788,C;S;V;F,16.8,0x00c000,-35.3,0.00e-0
1664872789,C;S;V;F,16.8,0x00c000,-35.4,0.00e-0
1664872790,C;S;V;F,16.9,0x00c000,-35.5,0.00e-0
1664872791,C;S;V;F,16.7,0x00c000,-35.5,0.00e-0
1664872792,C;S;V;F,16.9,0x00c000,-35.6,0.00e-0
1664872793,C;S;V;F,16.8,0x00c000,-35.2,0.00e-0
1664872794,C;S;V;F,17.3,0x00c000,-35.1,0.00e-0
1664872795,C;S;V;F,17.3,0x00c000,-34.8,
1664872796,,17.5,0x00c000,-34.9,0.00e-0
1664872797,C;S;V;F,17.4,0x00c000,-34.8,0.00e-0
1664872798,C;S;V;F,17.2,0x00c000,-34.8,0.00e-0
1664872799,C;S;V;F,,0x00c000,-34.7,0.00e-0
1664872800,C;S;V;F,17.4,0x00c000,-34.6,0.00e-0
1664872801,C;S;V;F,17.4,0x00c000,,0.00e-0
1664872802,C;S;V;F,17.5,0x00c000,-34.7,0.00e-0
1664872803,C;S;V;F,17.4,0x00c000,-34.8,0.00e-0
1664872804,C;S;V;F,17.3,0x00c000,-34.7,0.00e-0
1664872805,C;S;V;F,17.4,0x00c000,-34.6,0.00e-0
1664872806,C;S;V;F,17.4,0x00c000,-34.5,0.00e-0
1664872807,C;S;V;F,17.7,0x00c000,-34.3,0.00e-0
1664872808,C;S;V;F,17.5,0x00c000,-34.2,0.00e-0
1664872809,C;S;V;F,17.7,0x00c000,-34.3,0.00e-0
1664872810,C;S;V;F,17.5,0x00c000,-34.7,0.00e-0
1664872811,C;S;V;F,17.5,0x00c000,-34.7,0.00e-0
1664872812,C;S;V;F,17.5,0x00c000,-34.6,0.00e-0
1664872813,C;S;V;F,17.6,0x00c000,-34.8,0.00e-0
1664872814,C;S;V;F,17.4,0x00c000,-34.9,
1664872815,,17.4,0x00c000,-34.8,0.00e-0
1664872816,C;S;V;F,17.4,0x00c000,-34.8,0.00e-0
1664872817,C;S;V;F,17.4,0x00c000,-34.8,0.00e-0
1664872818,C;S;V;F,17.3,0x00c000,-34.8,0.00e-0
1664872819,C;S;V;F,,0x00c000,-34.8,0.00e-0
1664872820,C;S;V;F,17.3,0x00c000,-35.1,0.00e-0
1664872821,C;S;V;F,16.9,0x00c000,,0.00e-0
1664872822,C;S;V;F,16.9,0x00c000,-35.1,0.00e-0
1664872823,C;S;V;F,17.0,0x00c000,-35.1,0.00e-0
1664872824,C;S;V;F,16.9,0x00c000,-35.1,0.00e-0
1664872825,C;S;V;F,17.0,0x00c000,-35.2,0.00e-0
1664872826,C;S;V;F,16.8,0x00c000,-35.1,0.00e-0
1664872827,C;S;V;F,16.9,0x00c000,-34.8,0.00e-0
1664872828,C;S;V;F,16.8,0x00c000,-34.9,0.00e-0
1664872829,C;S;V;F,17.0,0x00c000,-34.8,0.00e-0
1664872830,C;S;V;F,16.8,0x00c000,-35.0,0.00e-0
1664872831,C;S;V;F,17.2,0x00c000,-34.8,
1664872832,C;S;V;F,17.0,0x00c000,-35.1,0.00e-0
1664872833,,,,,0.00e-0
1664872835,,16.5,0x00c000,-35.6,
1664872836,C;S;V;F,16.5,0x00c000,-35.7,0.00e-0
1664872837,C;S;V;F,16.5,0x00c000,-35.7,0.00e-0
1664872838,C;S;V;F,,0x00c000,-35.6,0.00e-0
1664872839,C;S;V;F,16.7,0x00c000,-35.6,0.00e-0
1664872840,C;S;V;F,16.5,0x00c000,,0.00e-0
1664872841,C;S;V;F,16.7,0x00c000,-35.7,0.00e-0
1664872842,C;S;V;F,16.6,0x00c000,-35.8,0.00e-0
1664872843,C;S;V;F,16.3,0x00c000,-35.9,0.00e-0
1664872844,C;S;V;F,16.1,0x00c000,-36.0,0.00e-0
1664872845,C;S;V;F,15.9,0x00c000,-36.1,0.00e-0
1664872846,C;S;V;F,15.9,0x00c000,-36.3,0.00e-0